Regional Weather Roundup
Issued by NWS Charleston, SC

Current Version | Previous Version | Graphics & Text | Print | Product List | Glossary On
Versions: 1 2 3 4 5 6 7 8 9 10 11 12 13 14 15 16 17 18 19 20 21 22 23 24 25 26 27 28 29 30 31 32 33 34 35 36 37 38 39 40 41 42 43 44 45 46 47 48 49 50
000 ASUS42 KCHS 081027 RWRCHS REGIONAL WEATHER ROUNDUP NATIONAL WEATHER SERVICE CHARLESTON SC 500 AM EST THU DEC 08 2016 NOTE: "FAIR" INDICATES FEW OR NO CLOUDS BELOW 12,000 FEET WITH NO SIGNIFICANT WEATHER AND/OR OBSTRUCTIONS TO VISIBILITY. NOT ALL STATIONS ARE QUALITY CONTROLLED. USE DATA WITH CAUTION... ESPECIALLY DEWPOINT OBSERVATIONS. SCZ027-030-031-034>040-042>050-081100- ...SOUTHEAST SOUTH CAROLINA... CITY SKY/WX TMP DP RH WIND PRES REMARKS N CHARLESTON CLOUDY 55 52 89 CALM 30.06S WATERFRONT PRK N/A 56 54 93 CALM 30.06S MOUNT PLEASANT CLOUDY 52 52 100 CALM 30.06S FOG JOHNS ISLAND CLOUDY 55 54 94 CALM 30.07S PINOPOLIS N/A 54 54 100 CALM 29.98F MONCKS CORNER PTSUNNY 50 48 93 CALM 30.06S FOG SUMMERVILLE PTSUNNY N/A N/A N/A CALM 30.07S BEAUFORT MCAS CLOUDY 56 53 90 W6 30.07S BEAUFORT ARPT CLOUDY 54 54 100 CALM 30.07S HILTON HEAD IS PTCLDY 54 52 94 SW5 30.08S WALTERBORO CLOUDY 55 N/A N/A CALM 30.07S ALLENDALE CLOUDY 52 52 100 VRB3 30.07R ...SOUTHERN MIDLANDS AND PEE DEE... CITY SKY/WX TMP DP RH WIND PRES REMARKS GEORGETOWN CLOUDY 48 46 93 CALM 30.07S FOG KINGSTREE CLOUDY 52 50 93 CALM 30.06S ORANGEBURG LGT RAIN 53 53 100 W6 30.07R FOG BARNWELL NOT AVBL AIKEN CLOUDY 50 48 93 SW6 30.08F MANNING CLOUDY 52 50 93 CALM 30.06S COLUMBIA CLOUDY 53 50 89 SW5 30.04F SUMTER CLOUDY 52 50 92 SW5 30.04S FLORENCE CLOUDY 53 50 89 W5 30.06S MYRTLE BEACH N/A 52 48 87 W6 30.08S N MYRTLE BEACH CLOUDY 50 50 100 CALM 30.05S $$ GAZ063-065-086>088-099>101-113>116-118-119-134>141-150-081100- ...SOUTHEAST GEORGIA... CITY SKY/WX TMP DP RH WIND PRES REMARKS SAVANNAH ARPT CLEAR 51 48 89 SW6 30.09R HUNTER AAF CLEAR 50 50 100 W5 30.06S FORT STEWART MOCLDY 48 46 93 CALM 30.08R STATESBORO CLEAR 49 48 99 W5 30.09S SYLVANIA SUNNY N/A N/A N/A W3 30.09S CLAXTON FAIR N/A N/A N/A CALM 30.10S ...CSRA...CENTRAL AND FAR SOUTHEAST GEORGIA... CITY SKY/WX TMP DP RH WIND PRES REMARKS THOMSON PTCLDY 46 46 100 CALM 30.13R AUGUSTA-BUSH CLEAR 50 47 89 SW6 30.07S AUGUSTA-DANIEL CLEAR 49 45 86 VRB3 30.07S SWAINSBORO FAIR 46 45 93 W5 30.11R VIDALIA CLEAR 50 46 87 CALM 30.11S EASTMAN CLOUDY 52 39 60 CALM 30.15R HAZLEHURST CLOUDY 55 49 83 W3 30.10S ALMA CLOUDY 53 48 83 NW6 30.10 WAYCROSS PTCLDY 47 47 100 CALM 30.12R JESUP FAIR 45 45 100 CALM 30.11S FOG BAXLEY CLOUDY 54 52 94 NW7 30.11R BRUNSWICK FOG 50 50 100 W5 30.12R VSB 3/4 SAINT SIMONS CLEAR 52 49 89 W5 30.10F $$ SCZ027-028-034-036>038-045-046-048>050-GAZ119-141-081100- ...LAKE AND SUPPLEMENTAL COASTAL OBSERVATIONS... STATION/POSITION TIME TEMP WIND PRES WAVE SWELL AIR SEA DIR/SP/G HT/PER HT/PER/DIR (UTC) (F) (DEG/KT/KT) (MB) (FT/S) (FT/S/D) WINYAH BAY 0945 52 CALM 1018.0S LAKE MURRAY 0930 53 260/ 6/ 8 1016.9F ACE BASIN NERRS 0945 55 CALM 1018.0S FORT PULASKI 1000 56 62 290/ 9/ 10 1018.7 SAPELO ISLAND 1000 53 290/ 5 1019.0 $$ ANZ835-935-AMZ111-154-330-350-352-354-370-450-454-472-081100- ...C-MAN AND BUOY OBSERVATIONS... STATION/POSITION TIME TEMP WIND PRES WAVE SWELL AIR SEA DIR/SP/G HT/PER HT/PER/DIR (UTC) (F) (DEG/KT/KT) (MB) (FT/S) (FT/S/D) BUOY 41004 0950 63 74 350/ 8/ 10 1017.4F 2/ 7 2/120/ 7 BUOY 41008 0950 58 65 290/ 14/ 16 1018.4S 2/ 3 2/ 60/10 FOLLY BEACH CMAN 1000 57 60/ 4/ 4 1018.3S CAPERS NEARSHORE 0908 56 61 10/ 4/ 4 1017.9F FRIPP NEARSHORE 1008 58 61 300/ 8/ 12 1017.9R STATION/POSITION TIME TEMP WIND PRES WAVE SWELL AIR SEA DIR/SP/G HT/PER HT/PER/DIR (UTC) (F) (DEG/KT/KT) (MB) (FT/S) (FT/S/D) 5E ST. MARYS GA 1000 66 N/A 2/11 FRYING PAN BUOY 1010 63 74 270/ 14/ 17 1017.5 BUOY 41025 0950 55 78 260/ 4/ 10 1017.8F 5/10 5/ 60/10 CAPE LOOKOUT NC 1000 55 30/ 4/ 5 1016.8F BUOY 41002 0950 71 73 300/ 6/ 8 1017.4R 6/10 5/ 30/10 BUOY 41010 NOT AVBL ST AUGUSTINE FL 1000 54 66 320/ 8/ 11 1020.2R $$

USA.gov is the U.S. government's official web portal to all federal, state and local government web resources and services.